sat.trackr.live / text

‹ back to catalog

STARLINK-33761

NORAD 63455 · 2025-069Y

PAYLOAD ACTIVE UNKNOWN

§ Identity

Operator
Country
US
Launch date
2025-04-04
Launch site
AFWTR
Launch vehicle
Mass (kg)
RCS (m²)

Purposes: comms

External: N2YO · Heavens-Above · Gunter

§ Orbital elements

Epoch: 2026-05-24T17:25:20.900640Z

Period
93.37 min
Inclination
53.1591°
Eccentricity
0.0001294
Mean motion
15.42173146 rev/d
Perigee alt
438.8 km
Apogee alt
440.6 km
Semi-major
6,817.8 km
B*
4.8538e-4
RAAN
146.6217°
Arg perigee
96.9225°
Mean anomaly
263.1928°
Rev number
6,508

§ Raw data

STARLINK-337611 63455U 25069Y   26144.72593635  .00020777  00000+0  48538-3 0  99952 63455  53.1591 146.6217 0001294  96.9225 263.1928 15.42173146 65089

JSON: /api/v1/satellites/63455 · /tle

For live sub-satellite position, see the globe view (requires WebGL).

§ Visibility from observer

Set your observer location to see the next 7 days of passes ≥ 10°. The values pass through the URL so the page stays shareable.

No JS? Fill the form by hand. The geolocation button needs JavaScript.